Date String (YYYY-MM-DD hh:mm:ss) UTC,Instrument flags,absolute air pressure of the measurement (hPa),sample flow rate (lpm),inlet stack bypass flow (lpm),air temperature of the measurement (°C),ambient temperature measured by the external sensor (°C),aerosol sample conditioner tube jacket temperature (°C),OPC LED temperature (°C),internal box temperature (°C),relative humidity of the measurement (%),span deviation,mass concentration of particles derived from Lorenz-Mie calculation of OPC scattering (μg/m³),mass concentration of particles derived from Lorenz-Mie calculation of OPC scattering (μg/m³),mass concentration of particles derived from Lorenz-Mie calculation of OPC scattering (μg/m³)
DateTimeUTC,F1_M11,P_M11,Q1_M11,Q2_M11,T1_M11,T2_M11,T3_M11,T4_M11,T5_M11,U1_M11,ZSPAN_M11,X0_M11,X2_M11,X1_M11
2024-01-01 13:00:00,SystemResetWarning,0830.9,4.99,000.00,019.1,018.1,000.0,027.4,020.4,15.4,0000.0,0009.16,0006.48,0006.17
2024-01-01 13:01:00,SystemResetWarning,0831.0,5.00,000.00,019.1,018.1,000.0,027.4,020.4,15.4,0000.0,0009.15,0006.48,0006.19
2024-01-01 13:02:00,SystemResetWarning,0830.9,5.01,000.00,019.1,018.1,000.0,027.4,020.3,15.4,0000.0,0009.07,0006.42,0006.13
2024-01-01 13:03:00,SystemResetWarning,0831.0,5.01,000.00,019.1,018.1,000.0,027.4,020.4,15.4,0000.0,0009.04,0006.35,0006.05
2024-01-01 13:04:00,SystemResetWarning,0830.9,4.99,000.00,019.1,018.1,000.0,027.4,020.4,15.4,0000.0,0009.06,0006.29,0006.00
2024-01-01 13:05:00,SystemResetWarning,0831.0,4.99,000.00,019.1,018.1,000.0,027.4,020.4,15.4,0000.0,0009.02,0006.27,0005.96
2024-01-01 13:06:00,SystemResetWarning,0831.0,5.00,000.00,019.1,018.0,000.0,027.4,020.3,15.4,0000.0,0008.97,0006.24,0005.93
2024-01-01 13:07:00,SystemResetWarning,0830.9,5.00,000.00,019.1,018.0,000.0,027.4,020.3,15.4,0000.0,0008.97,0006.24,0005.93
2024-01-01 13:08:00,SystemResetWarning,0830.9,5.00,000.00,019.0,018.0,000.0,027.4,020.4,15.3,0000.0,0009.14,0006.30,0005.97
2024-01-01 13:09:00,SystemResetWarning,0830.9,5.01,000.00,019.0,018.0,000.0,027.4,020.3,15.4,0000.0,0009.27,0006.38,0006.04
2024-01-01 13:10:00,SystemResetWarning,0830.9,5.00,000.00,019.0,018.0,000.0,027.4,020.3,15.4,0000.0,0009.53,0006.44,0006.10
2024-01-01 13:11:00,SystemResetWarning,0830.9,5.00,000.00,019.0,018.1,000.0,027.4,020.3,15.4,0000.0,0009.68,0006.52,0006.16
2024-01-01 13:12:00,SystemResetWarning,0831.0,4.99,000.00,019.0,018.1,000.0,027.4,020.3,15.4,0000.0,0009.76,0006.59,0006.23
2024-01-01 13:13:00,SystemResetWarning,0831.0,4.99,000.00,019.0,018.1,000.0,027.4,020.3,15.4,0000.0,0009.87,0006.68,0006.30
2024-01-01 13:14:00,SystemResetWarning,0831.0,5.00,000.00,019.0,018.1,000.0,027.4,020.3,15.4,0000.0,0009.95,0006.77,0006.39
2024-01-01 13:15:00,SystemResetWarning,0831.0,5.00,000.00,019.0,018.1,000.0,027.4,020.3,15.4,0000.0,0009.92,0006.84,0006.44
2024-01-01 13:16:00,SystemResetWarning,0831.1,5.00,000.00,019.0,018.0,000.0,027.4,020.3,15.4,0000.0,0010.11,0006.84,0006.47
2024-01-01 13:17:00,SystemResetWarning,0831.1,5.00,000.00,019.0,018.1,000.0,027.4,020.3,15.4,0000.0,0010.36,0006.80,0006.41
2024-01-01 13:18:00,SystemResetWarning,0831.1,5.01,000.00,019.0,018.1,000.0,027.4,020.3,15.4,0000.0,0010.35,0006.74,0006.34
2024-01-01 13:19:00,SystemResetWarning,0831.0,5.00,000.00,019.0,018.1,000.0,027.4,020.3,15.4,0000.0,0010.21,0006.64,0006.25
2024-01-01 13:20:00,SystemResetWarning,0831.1,4.99,000.00,019.0,018.1,000.0,027.4,020.3,15.4,0000.0,0010.01,0006.53,0006.17
2024-01-01 13:21:00,SystemResetWarning,0831.1,4.99,000.00,019.0,018.1,000.0,027.3,020.3,15.4,0000.0,0009.77,0006.48,0006.13
2024-01-01 13:22:00,SystemResetWarning,0831.1,4.99,000.00,019.0,018.1,000.0,027.3,020.3,15.4,0000.0,0009.60,0006.47,0006.10
2024-01-01 13:23:00,SystemResetWarning,0831.1,5.00,000.00,019.0,018.0,000.0,027.3,020.3,15.4,0000.0,0009.59,0006.47,0006.09
2024-01-01 13:24:00,SystemResetWarning,0831.1,5.00,000.00,019.0,018.1,000.0,027.4,020.3,15.4,0002.0,0009.56,0006.45,0006.08
2024-01-01 13:25:00,SystemResetWarning,0831.1,5.01,000.00,019.0,018.1,000.0,027.4,020.3,15.4,0000.0,0009.45,0006.40,0006.07
2024-01-01 13:26:00,SystemResetWarning,0831.2,5.00,000.00,019.0,018.1,000.0,027.4,020.3,15.3,0000.0,0009.55,0006.40,0006.06
2024-01-01 13:27:00,SystemResetWarning,0831.1,5.00,000.00,019.0,018.1,000.0,027.3,020.3,15.3,0000.0,0009.39,0006.42,0006.08
2024-01-01 13:28:00,SystemResetWarning,0831.2,5.00,000.00,019.0,018.1,000.0,027.3,020.3,15.3,0000.0,0009.17,0006.52,0006.18
2024-01-01 13:29:00,SystemResetWarning,0831.1,5.00,000.00,019.0,018.1,000.0,027.3,020.3,15.4,0000.0,0009.24,0006.57,0006.25
2024-01-01 13:30:00,SystemResetWarning,0831.2,5.00,000.00,019.0,018.1,000.0,027.3,020.2,15.4,0000.0,0009.29,0006.62,0006.31
2024-01-01 13:31:00,SystemResetWarning,0831.1,5.00,000.00,019.0,018.1,000.0,027.3,020.3,15.3,0000.0,0009.31,0006.66,0006.36
2024-01-01 13:32:00,SystemResetWarning,0831.2,5.00,000.00,019.0,018.1,000.0,027.3,020.3,15.3,0000.0,0009.35,0006.72,0006.39
2024-01-01 13:33:00,SystemResetWarning,0831.1,5.00,000.00,019.0,018.1,000.0,027.3,020.3,15.3,0000.0,0009.83,0006.74,0006.41
2024-01-01 13:34:00,SystemResetWarning,0831.2,5.00,000.00,018.9,018.1,000.0,027.3,020.3,15.3,0000.0,0010.17,0006.72,0006.41
2024-01-01 13:35:00,SystemResetWarning,0831.1,5.00,000.00,019.0,018.1,000.0,027.3,020.3,15.3,0000.0,0010.22,0006.72,0006.40
2024-01-01 13:36:00,SystemResetWarning,0831.2,5.00,000.00,018.9,018.2,000.0,027.3,020.2,15.3,0000.0,0010.27,0006.74,0006.40
2024-01-01 13:37:00,SystemResetWarning,0831.1,5.00,000.00,018.9,018.2,000.0,027.3,020.2,15.3,0000.0,0010.70,0006.70,0006.38
2024-01-01 13:38:00,SystemResetWarning,0831.2,5.01,000.00,018.9,018.1,000.0,027.3,020.2,15.3,0000.0,0010.73,0006.68,0006.36
2024-01-01 13:39:00,SystemResetWarning,0831.1,5.01,000.00,018.9,018.1,000.0,027.3,020.2,15.4,0000.0,0010.80,0006.65,0006.33
2024-01-01 13:40:00,SystemResetWarning,0831.2,5.00,000.00,018.9,018.1,000.0,027.3,020.2,15.3,0000.0,0011.40,0006.64,0006.30
2024-01-01 13:41:00,SystemResetWarning,0831.1,5.01,000.00,018.9,018.1,000.0,027.3,020.2,15.3,0000.0,0011.46,0006.63,0006.28
2024-01-01 13:42:00,SystemResetWarning,0831.1,5.00,000.00,018.9,018.1,000.0,027.3,020.2,15.3,0000.0,0011.44,0006.59,0006.24
2024-01-01 13:43:00,SystemResetWarning,0831.1,5.00,000.00,018.9,018.1,000.0,027.3,020.2,15.3,0000.0,0011.44,0006.55,0006.19
2024-01-01 13:44:00,SystemResetWarning,0831.2,4.99,000.00,018.9,018.1,000.0,027.3,020.2,15.3,0000.0,0011.21,0006.47,0006.12
2024-01-01 13:45:00,SystemResetWarning,0831.1,5.00,000.00,018.9,018.1,000.0,027.3,020.2,15.3,0000.0,0010.54,0006.38,0006.04
2024-01-01 13:46:00,SystemResetWarning,0831.1,5.00,000.00,018.9,018.1,000.0,027.3,020.2,15.3,0000.0,0010.51,0006.31,0005.96
2024-01-01 13:47:00,SystemResetWarning,0831.2,5.00,000.00,018.9,018.1,000.0,027.3,020.2,15.3,0000.1,0010.50,0006.26,0005.91
2024-01-01 13:48:00,SystemResetWarning,0831.1,5.00,000.00,018.9,018.1,000.0,027.3,020.2,15.3,0001.6,0010.03,0006.21,0005.88
2024-01-01 13:49:00,SystemResetWarning,0831.1,5.00,000.00,018.9,018.1,000.0,027.3,020.2,15.3,0001.1,0009.90,0006.19,0005.84
2024-01-01 13:50:00,SystemResetWarning,0831.1,5.01,000.00,018.9,018.1,000.0,027.3,020.2,15.3,0004.2,0009.92,0006.16,0005.80
2024-01-01 13:51:00,SystemResetWarning,0831.1,5.01,000.00,018.9,018.1,000.0,027.3,020.2,15.3,0005.3,0009.27,0006.09,0005.76
2024-01-01 13:52:00,SystemResetWarning,0831.2,5.01,000.00,018.9,018.1,000.0,027.3,020.2,15.3,0000.9,0008.94,0006.01,0005.69
2024-01-01 13:53:00,SystemResetWarning,0831.1,5.00,000.00,018.9,018.1,000.0,027.3,020.2,15.3,0005.0,0008.87,0005.94,0005.59
2024-01-01 13:54:00,SystemResetWarning,0831.1,5.00,000.00,018.9,018.1,000.0,027.3,020.2,15.3,0003.3,0008.75,0005.85,0005.52
2024-01-01 13:55:00,SystemResetWarning,0831.1,5.00,000.00,018.9,018.1,000.0,027.3,020.2,15.2,0000.0,0008.63,0005.78,0005.47
2024-01-01 13:56:00,SystemResetWarning,0831.2,5.00,000.00,018.9,018.1,000.0,027.3,020.2,15.2,0000.0,0008.52,0005.75,0005.45
2024-01-01 13:57:00,SystemResetWarning,0831.2,5.00,000.00,018.9,018.1,000.0,027.3,020.1,15.2,0000.9,0008.46,0005.75,0005.43
2024-01-01 13:58:00,SystemResetWarning,0831.1,4.99,000.00,018.9,018.1,000.0,027.3,020.1,15.2,0005.5,0008.36,0005.70,0005.39
2024-01-01 13:59:00,SystemResetWarning,0831.1,4.99,000.00,018.9,018.1,000.0,027.3,020.1,15.2,0001.7,0008.28,0005.66,0005.36
